Flag for Poland Weather past 2 weeks in Białystok, Poland

Now
76 °F

Partly sunny.


Feels Like: 78 °F
Forecast: 60 / 85 °F
Wind: 3 mph from East

Location: Bialystok

Current Time: Jul 24, 2014 at 8:46:29 PM

Latest Report: Jul 24, 2014 at 7:00 PM


Visibility: 25 mi

Pressure: 29.98 "Hg

Humidity: 36%

Dew point: 47 °F

Location of BiałystokLocation

Historic Weather in Białystok — Graph

°F

Białystok temperature yesterday

Maximum temperature yesterday: 78 °F (at 2:00 PM)
Minimum temperature yesterday: 58 °F (at 2:00 AM)
Average temperature yesterday: 65 °F

Past Weeks' High & Low Weather Summary

 TemperatureHumidityPressure
High81 °F (Jul 15, 11:00 AM)99% (Jul 14, 6:00 AM)30.16 "Hg (Jul 14, 6:00 AM)
Low49 °F (Jul 14, 4:00 AM)32% (Jul 24, 6:00 PM)29.67 "Hg (Jul 12, 8:00 PM)
Average68 °F71%29.96 "Hg
* Reported Jul 9 7:00 PM — Jul 24 7:00 PM, Białystok, Weather by CustomWeather, © 2014

Note: Actual official high and low records may vary slightly from our data, if they occured in-between our weather recording intervals... More about our weather records

Advertising

Białystok weather history for previous 24 hours

 ConditionsComfort  
Time TempWeatherWind HumidityBarometerVisibility
7:00 PM
Jul 24
76 °FPartly sunny.3 mph36%29.98 "Hg25 mi
6:00 PM78 °FPartly sunny.5 mph32%29.98 "Hg28 mi
5:00 PM80 °FPartly sunny.5 mph34%29.98 "Hg19 mi
4:00 PM80 °FPartly sunny.6 mph33%29.98 "Hg19 mi
3:00 PM80 °FPartly sunny.6 mph34%29.99 "Hg22 mi
2:00 PM79 °FPartly sunny.5 mph36%30.00 "Hg19 mi
1:00 PM78 °FPartly sunny.6 mph37%30.01 "Hg16 mi
12:00 PM77 °FPartly sunny.6 mph41%30.02 "Hg18 mi
11:00 AM76 °FPartly sunny.6 mph43%30.02 "Hg17 mi
10:00 AM74 °FPartly sunny.6 mph50%30.03 "Hg17 mi
9:00 AM71 °FPartly sunny.5 mph54%30.03 "Hg19 mi
8:00 AM69 °FPartly sunny.2 mph59%30.03 "Hg16 mi
7:00 AM65 °FScattered clouds.3 mph64%30.03 "Hg17 mi
6:00 AM61 °FScattered clouds.2 mph73%30.04 "Hg22 mi
5:00 AM59 °FScattered clouds.3 mph74%30.04 "Hg22 mi
4:00 AM60 °FPassing clouds.2 mph74%30.04 "Hg28 mi
3:00 AM60 °FPassing clouds.2 mph75%30.04 "Hg28 mi
2:00 AM60 °FClear.2 mph78%30.04 "Hg25 mi
1:00 AM62 °FPassing clouds.2 mph76%30.05 "Hg25 mi
12:00 AM62 °FClear.1 mph80%30.05 "Hg22 mi
11:00 PM
Jul 23
61 °FClear.1 mph87%30.05 "Hg17 mi
10:00 PM61 °FFog.1 mph91%30.04 "Hg4 mi
9:00 PM63 °FPassing clouds.No wind93%30.03 "Hg6 mi
8:00 PM65 °FPartly sunny.1 mph93%30.02 "Hg7 mi
Weather by CustomWeather, © 2014

See weather overviewHow to use our weather pages